Tracking 28081 objects as of 26-Sep-2023
HD Live streaming from Space Station
objects crossing your sky now

ABS 3

Track ABS 3 now!
ABS 3 is classified as:


NORAD ID: 24901
Int'l Code: 1997-042A
Perigee: 36,057.4 km
Apogee: 36,100.0 km
Inclination: 9.2 °
Period: 1,450.7 minutes
Semi major axis: 42449 km
RCS: 10 m2 (large)
Launch date: August 19, 1997
Source: People's Republic of China (PRC)
Launch site: Xichang Space Center, China (XSC)

Most powerful telecommunications satellite in service in the Asia-Pacific region; 30 C-band, 24 Ku-band transponders; 190 high fidelity channels and 50,000 simultaneous telephone links.
Your satellite tracking list
Your tracking list is empty




NASA's NSSDC Master Catalog

Two Line Element Set (TLE):
1 24901U 97042A   23268.63796414 -.00000133  00000-0  00000-0 0  9997
2 24901   9.1976  50.5623 0005023 127.8114 237.4773  0.99263854 95356
Source of the keplerian elements: AFSPC